Tracking 28531 objects as of 27-Feb-2024
HD Live streaming from Space Station
objects crossing your sky now

TITAN 3C TRANSTAGE R/B

Track TITAN 3C TRANSTAGE R/B now!


NORAD ID: 3692
Int'l Code: 1969-013B
Perigee: 35,836.8 km
Apogee: 37,319.8 km
Inclination: 0.9 °
Period: 1,476.4 minutes
Semi major axis: 42949 km
RCS: 2.2907 m2 (large)
Launch date: February 9, 1969
Source: United States (US)
Launch site: AIR FORCE EASTERN TEST RANGE (AFETR)

Note: This is a ROCKET BODY
Your satellite tracking list
Your tracking list is empty




NASA's NSSDC Master Catalog

Two Line Element Set (TLE):
1 03692U 69013B   24058.58973997 -.00000262  00000-0  00000-0 0  9996
2 03692   0.9450 282.8742 0172645 179.6637  65.2543  0.97536981 34120
Source of the keplerian elements: AFSPC